Weather Roundup
Issued by NWS Chicago, IL

Home | Current Version | Previous Version | Text Only | Print | Product List | Glossary Off
Versions: 1 2 3 4 5 6 7 8 9 10 11 12 13 14 15 16 17 18 19 20 21 22 23 24 25 26 27 28 29 30 31 32 33 34 35 36 37 38 39 40 41 42 43 44 45 46 47 48 49 50

000
NZUS59 KLOT 012102
HRRLOT

CHICAGO AREA WEATHER ROUNDUP
NATIONAL WEATHER SERVICE CHICAGO/ROMEOVILLE IL
400 PM CDT SAT AUG 01 2015

NOTE: "FAIR" INDICATES FEW OR NO CLOUDS BELOW 12,000 FEET WITH NO
SIGNIFICANT WEATHER AND/OR OBSTRUCTIONS TO VISIBILITY.

* THESE STATIONS ARE NOT UNDER NWS QUALITY CONTROL. THEY ALSO MAY NOT
  REPORT WEATHER SUCH AS PRECIPITATION OR FOG.

ILZ005-006-012>014-019>023-012200-
NORTHEAST ILLINOIS

CITY           SKY/WX    TMP DP  RH WIND       PRES   REMARKS
OHARE          PTSUNNY   85  58  39 W16G24    29.92F HX  84
MIDWAY         PTSUNNY   88  55  32 W15G23    29.92F HX  86
AURORA         SUNNY     85  60  42 W17       29.94F HX  85
WAUKEGAN       PTSUNNY   84  59  42 SW8       29.91F HX  84
DUPAGE AIRPORT MOSUNNY   83  59  44 SW13      29.94S HX  83
WHEELING       MOSUNNY   86  56  35 W14G23    29.93S HX  85
NORTHERLY IS     N/A     86  53  32 W13         N/A  HX  84
$$

WIZ051-052-058>065-066-070>072-012200-
SOUTHEAST WISCONSIN

CITY           SKY/WX    TMP DP  RH WIND       PRES   REMARKS
MILWAUKEE      PTSUNNY   84  57  39 W8        29.90F HX  83
KENOSHA*       MOSUNNY   85  62  46 W9        29.91F HX  85
RACINE*        MOSUNNY   84  59  42 VRB7      29.92F HX  84
WAUKESHA       MOSUNNY   81  55  41 W12       29.93F HX  80
$$

INZ001>003-010>013-019-020-012200-
NORTHWEST INDIANA

CITY           SKY/WX    TMP DP  RH WIND       PRES   REMARKS
GARY*          PTSUNNY   86  55  35 W12G26    29.93F HX  84
MICHIGAN CITY* NOT AVBL
RENSSELAER*    NOT AVBL
$$

LMZ740>746-012200-
SOUTHERN LAKE MICHIGAN

STATION/POSITION TIME  SKY/WX   TEMP WIND        PRES    VSBY
                                AIR  DIR/SP/G
                 (UTC)          (F)  (DEG/KT/KT) (MB)    (MI)
HARRISON CRIB    2000            82  280/ 15/ 19   N/A
BURNHAM HARBOR   2100            86  240/ 12/ 17   N/A
CALUMET HARBOR   2000            85  250/  5/ 12   N/A
BURNS HARBOR     2000            82   70/  5/  6 1014.2F
MICHIGAN CITY    2000            78   20/  1/  1   N/A
$$

ABBREVIATIONS USED IN REMARKS
   TC - TEMPERATURE IN CELSIUS
  WCI - WIND CHILL INDEX
   HX - HEAT INDEX
  VSB - VISIBILITY
$$


USA.gov is the U.S. government's official web portal to all federal, state and local government web resources and services.